Regional Weather Roundup
Issued by NWS

Home | Current Version | Previous Version | Text Only | Print | Product List | Glossary Off
Versions: 1 2 3 4 5 6 7 8 9 10 11 12 13 14 15 16 17 18 19 20 21 22 23 24 25 26 27 28 29 30 31 32 33 34 35 36 37 38 39 40 41 42 43 44 45 46 47 48 49 50

000
ASUS43 KLSX 040859
RWRMO

WEATHER SUMMARY FOR MISSOURI
NATIONAL WEATHER SERVICE SPRINGFIELD MO
400 AM CDT MON MAY 04 2015

NOTE: "FAIR" INDICATES FEW OR NO CLOUDS BELOW 12,000 FEET WITH NO
       SIGNIFICANT WEATHER AND/OR OBSTRUCTIONS TO VISIBILITY.
       CURRENT SKY AND/OR WEATHER CONDITIONS ARE NOT AVAILABLE FOR
       CHILLICOTHE AND FARMINGTON.

MOZ001>031-035>038-043-044-053-054-041000-
...NORTHERN AND WESTERN MISSOURI...

CITY           SKY/WX    TMP DP  RH WIND       PRES   REMARKS
KANSAS CTY INT CLOUDY    68  55  63 SW10      29.94R
KANSAS C DTWN  CLOUDY    69  55  60 S8        29.94R
LEE`S SUMMIT   MOCLDY    66  55  67 S6        29.96R
ST JOSEPH      CLOUDY    68  59  73 CALM      29.97F
CHILLICOTHE      N/A     67  57  70 S7        29.95S

$$
MOZ066>068-077>081-088>096-101>105-041000-
...SOUTHWEST MISSOURI...

CITY           SKY/WX    TMP DP  RH WIND       PRES   REMARKS
SPRINGFIELD    LGT RAIN  64  55  72 S12       30.02R
JOPLIN         CLOUDY    66  54  65 S14       30.00F

$$
MOZ032>034-039>042-045>050-055>058-069>072-041000-
...CENTRAL MISSOURI...

CITY           SKY/WX    TMP DP  RH WIND       PRES   REMARKS
COLUMBIA       CLOUDY    62  55  77 S6        30.00R
JEFFERSON CITY CLOUDY    68  55  63 CALM      30.00R
ROLLA          CLOUDY    64  55  72 SW9       30.00S
SEDALIA        MOCLDY    64  56  75 S8        30.00R
WHITEMAN AFB   MOCLDY    60  56  88 S9        29.97R
OSAGE BEACH    MOCLDY    64  54  68 S5        30.02R

$$
MOZ051-052-059>065-041000-
...EAST CENTRAL MISSOURI...

CITY           SKY/WX    TMP DP  RH WIND       PRES   REMARKS
ST LOUIS INTL  CLOUDY    72  54  53 SW12      30.01R
SPIRIT OF STL  CLOUDY    70  55  59 CALM      29.99R
ST CHARLES     CLOUDY    67  57  70 S6        29.98R

$$
MOZ072>076-082>087-097>100-106>115-041000-
...SOUTH CENTRAL AND SOUTHEAST MISSOURI...

CITY           SKY/WX    TMP DP  RH WIND       PRES   REMARKS
CAPE GIRARDEAU MOCLDY    66  51  58 S5        30.06R
FARMINGTON     PTCLDY    63  52  67 S6        30.08S
POPLAR BLUFF   PTCLDY    60  53  77 CALM      30.05S
WEST PLAINS    PTCLDY    62  54  74 SW3       30.07R

$$


USA.gov is the U.S. government's official web portal to all federal, state and local government web resources and services.